Year,Month,Day,Hour,Minute,Value (Times are PST for temperature in C)
2009,04,25,00,00,6.10
2009,04,25,00,01,6.10
2009,04,25,00,02,6.10
2009,04,25,00,03,6.00
2009,04,25,00,04,6.00
2009,04,25,00,05,6.00
2009,04,25,00,06,6.10
2009,04,25,00,07,6.10
2009,04,25,00,08,6.10
2009,04,25,00,09,6.10
2009,04,25,00,10,6.10
2009,04,25,00,11,6.00
2009,04,25,00,12,6.00
2009,04,25,00,13,6.00
2009,04,25,01,02,6.30
2009,04,25,01,03,6.30
2009,04,25,01,04,6.30
2009,04,25,01,05,6.30
2009,04,25,01,06,6.30
2009,04,25,01,07,6.30
2009,04,25,01,08,6.30
2009,04,25,01,09,6.30
2009,04,25,01,10,6.20
2009,04,25,01,11,6.20
2009,04,25,01,12,6.20
2009,04,25,01,13,6.20
2009,04,25,01,14,6.20
2009,04,25,01,15,6.20
2009,04,25,01,16,6.20
2009,04,25,01,17,6.20
2009,04,25,01,18,6.10
2009,04,25,01,19,6.10
2009,04,25,01,20,6.10
2009,04,25,01,21,6.20
2009,04,25,01,22,6.20
2009,04,25,01,23,6.20
2009,04,25,01,24,6.20
2009,04,25,01,25,6.20
2009,04,25,01,26,6.20
2009,04,25,01,27,6.20
2009,04,25,01,28,6.20
2009,04,25,01,29,6.20
2009,04,25,01,30,6.20
2009,04,25,01,31,6.20
2009,04,25,01,32,6.20
2009,04,25,01,33,6.20
2009,04,25,01,34,6.20
2009,04,25,01,35,6.20
2009,04,25,01,36,6.20
2009,04,25,01,37,6.20
2009,04,25,01,38,6.20
2009,04,25,01,39,6.20
2009,04,25,01,40,6.20
2009,04,25,01,41,6.20
2009,04,25,01,42,6.10
2009,04,25,01,43,6.10
2009,04,25,01,44,6.10
2009,04,25,01,45,6.10
2009,04,25,01,46,6.10
2009,04,25,01,47,6.10
2009,04,25,01,48,6.10
2009,04,25,01,49,6.00
2009,04,25,01,50,6.00
2009,04,25,01,51,6.00
2009,04,25,01,52,6.00
2009,04,25,01,53,6.00
2009,04,25,01,54,5.90
2009,04,25,01,55,5.90
2009,04,25,01,56,5.90
2009,04,25,01,57,5.90
2009,04,25,01,58,5.90
2009,04,25,01,59,5.90
2009,04,25,02,00,5.90
2009,04,25,02,01,5.90
2009,04,25,02,02,5.90
2009,04,25,02,03,5.90
2009,04,25,02,04,5.90
2009,04,25,02,05,5.80
2009,04,25,02,06,5.80
2009,04,25,02,07,5.80
2009,04,25,02,08,5.80
2009,04,25,02,09,5.80
2009,04,25,02,10,5.80
2009,04,25,02,11,5.80
2009,04,25,02,12,5.80
2009,04,25,02,13,5.80
2009,04,25,02,14,5.80
2009,04,25,02,15,5.80
2009,04,25,02,16,5.70
2009,04,25,02,17,5.70
2009,04,25,02,18,5.70
2009,04,25,02,19,5.70
2009,04,25,02,20,5.70
2009,04,25,02,21,5.70
2009,04,25,02,22,5.70
2009,04,25,02,23,5.60
2009,04,25,02,24,5.60
2009,04,25,02,25,5.60
2009,04,25,02,26,5.60
2009,04,25,02,27,5.60
2009,04,25,02,28,5.60
2009,04,25,02,29,5.70
2009,04,25,02,30,5.70
2009,04,25,02,31,5.70
2009,04,25,02,32,5.70
2009,04,25,02,33,5.70
2009,04,25,02,34,5.70
2009,04,25,02,35,5.70
2009,04,25,02,36,5.70
2009,04,25,02,37,5.70
2009,04,25,02,38,5.70
2009,04,25,02,39,5.70
2009,04,25,02,40,5.70
2009,04,25,02,41,5.70
2009,04,25,02,42,5.70
2009,04,25,02,43,5.70
2009,04,25,02,44,5.70
2009,04,25,02,45,5.70
2009,04,25,02,46,5.70
2009,04,25,02,47,5.70
2009,04,25,02,48,5.80
2009,04,25,02,49,5.80
2009,04,25,02,50,5.80
2009,04,25,02,51,5.80
2009,04,25,02,52,5.80
2009,04,25,02,53,5.80
2009,04,25,02,54,5.80
2009,04,25,02,55,5.80
2009,04,25,02,56,5.90
2009,04,25,02,57,5.80
2009,04,25,02,58,5.90
2009,04,25,02,59,5.90
2009,04,25,03,00,5.90
2009,04,25,03,01,5.90
2009,04,25,03,02,5.90
2009,04,25,03,03,5.80
2009,04,25,03,04,5.80
2009,04,25,03,05,5.80
2009,04,25,03,06,5.80
2009,04,25,03,07,5.80
2009,04,25,03,08,5.80
2009,04,25,03,09,5.80
2009,04,25,03,10,5.80
2009,04,25,03,11,5.80
2009,04,25,03,12,5.80
2009,04,25,03,13,5.80
2009,04,25,03,14,5.80
2009,04,25,03,15,5.80
2009,04,25,03,16,5.80
2009,04,25,03,17,5.80
2009,04,25,03,18,5.80
2009,04,25,03,19,5.80
2009,04,25,03,20,5.70
2009,04,25,03,21,5.70
2009,04,25,03,22,5.70
2009,04,25,03,23,5.70
2009,04,25,03,24,5.70
2009,04,25,03,25,5.70
2009,04,25,03,26,5.70
2009,04,25,03,27,5.70
2009,04,25,03,28,5.70
2009,04,25,03,29,5.70
2009,04,25,03,30,5.70
2009,04,25,03,31,5.80
2009,04,25,03,32,5.80
2009,04,25,03,33,5.80
2009,04,25,03,34,5.80
2009,04,25,03,35,5.80
2009,04,25,03,36,5.80
2009,04,25,03,37,5.80
2009,04,25,03,38,5.80
2009,04,25,03,39,5.80
2009,04,25,03,40,5.80
2009,04,25,03,41,5.80
2009,04,25,03,42,5.80
2009,04,25,03,43,5.70
2009,04,25,03,44,5.70
2009,04,25,03,45,5.70
2009,04,25,03,46,5.70
2009,04,25,03,47,5.60
2009,04,25,03,48,5.60
2009,04,25,03,49,5.50
2009,04,25,03,50,5.50
2009,04,25,03,51,5.40
2009,04,25,03,52,5.30
2009,04,25,03,53,5.30
2009,04,25,03,54,5.20
2009,04,25,03,55,5.20
2009,04,25,03,56,5.20
2009,04,25,03,57,5.20
2009,04,25,03,58,5.20
2009,04,25,03,59,5.20
2009,04,25,04,00,5.10
2009,04,25,04,01,5.10
2009,04,25,04,02,5.10
2009,04,25,04,03,5.10
2009,04,25,04,04,5.10
2009,04,25,04,05,5.10
2009,04,25,04,06,5.00
2009,04,25,04,07,4.90
2009,04,25,04,08,4.90
2009,04,25,04,09,4.80
2009,04,25,04,10,4.80
2009,04,25,04,11,4.80
2009,04,25,04,12,4.90
2009,04,25,04,13,4.90
2009,04,25,04,14,5.00
2009,04,25,04,15,5.10
2009,04,25,04,16,5.20
2009,04,25,04,17,5.30
2009,04,25,04,18,5.30
2009,04,25,04,19,5.30
2009,04,25,04,20,5.30
2009,04,25,04,21,5.30
2009,04,25,04,22,5.20
2009,04,25,04,23,5.20
2009,04,25,04,24,5.10
2009,04,25,04,25,5.10
2009,04,25,04,26,5.10
2009,04,25,04,27,5.10
2009,04,25,04,28,5.10
2009,04,25,04,29,5.10
2009,04,25,04,30,5.10
2009,04,25,04,31,5.10
2009,04,25,04,32,5.00
2009,04,25,04,33,5.00
2009,04,25,04,34,4.90
2009,04,25,04,35,4.90
2009,04,25,04,36,4.80
2009,04,25,04,37,4.80
2009,04,25,04,38,4.80
2009,04,25,04,39,4.70
2009,04,25,04,40,4.70
2009,04,25,04,41,4.60
2009,04,25,04,42,4.60
2009,04,25,04,43,4.70
2009,04,25,04,44,4.70
2009,04,25,04,45,4.80
2009,04,25,04,46,4.80
2009,04,25,04,47,4.90
2009,04,25,04,48,5.00
2009,04,25,04,49,5.00
2009,04,25,04,50,5.00
2009,04,25,04,51,5.00
2009,04,25,04,52,4.90
2009,04,25,04,53,4.90
2009,04,25,04,54,4.80
2009,04,25,04,55,4.80
2009,04,25,04,56,4.70
2009,04,25,04,57,4.70
2009,04,25,04,58,4.70
2009,04,25,04,59,4.70
2009,04,25,05,00,4.60
2009,04,25,05,01,4.60
2009,04,25,05,02,4.60
2009,04,25,05,03,4.60
2009,04,25,05,04,4.60
2009,04,25,05,05,4.60
2009,04,25,05,06,4.60
2009,04,25,05,07,4.70
2009,04,25,05,08,4.70
2009,04,25,05,09,4.80
2009,04,25,05,10,4.80
2009,04,25,05,11,4.80
2009,04,25,05,12,4.90
2009,04,25,05,13,5.00
2009,04,25,05,14,5.00
2009,04,25,05,15,5.10
2009,04,25,05,16,5.20
2009,04,25,05,17,5.30
2009,04,25,05,18,5.30
2009,04,25,05,19,5.30
2009,04,25,05,20,5.30
2009,04,25,05,21,5.30
2009,04,25,05,22,5.30
2009,04,25,05,23,5.30
2009,04,25,05,24,5.30
2009,04,25,05,25,5.30
2009,04,25,05,26,5.30
2009,04,25,05,27,5.30
2009,04,25,05,28,5.30
2009,04,25,05,29,5.30
2009,04,25,05,30,5.30
2009,04,25,05,31,5.30
2009,04,25,05,32,5.40
2009,04,25,05,33,5.40
2009,04,25,05,34,5.50
2009,04,25,05,35,5.50
2009,04,25,05,36,5.60
2009,04,25,05,37,5.60
2009,04,25,05,38,5.60
2009,04,25,05,39,5.60
2009,04,25,05,40,5.70
2009,04,25,05,41,5.70
2009,04,25,05,42,5.70
2009,04,25,05,43,5.80
2009,04,25,05,44,5.80
2009,04,25,05,45,5.80
2009,04,25,05,46,5.80
2009,04,25,05,47,5.80
2009,04,25,05,48,5.70
2009,04,25,05,49,5.70
2009,04,25,05,50,5.70
2009,04,25,05,51,5.70
2009,04,25,05,52,5.70
2009,04,25,05,53,5.60
2009,04,25,05,54,5.60
2009,04,25,05,55,5.50
2009,04,25,05,56,5.50
2009,04,25,05,57,5.40
2009,04,25,05,58,5.40
2009,04,25,05,59,5.40
2009,04,25,06,00,5.30
2009,04,25,06,01,5.30
2009,04,25,06,02,5.30
2009,04,25,06,03,5.30
2009,04,25,06,04,5.30
2009,04,25,06,05,5.20
2009,04,25,06,06,5.20
2009,04,25,06,07,5.20
2009,04,25,06,08,5.20
2009,04,25,06,09,5.10
2009,04,25,06,10,5.10
2009,04,25,06,11,5.10
2009,04,25,06,12,5.10
2009,04,25,06,13,5.10
2009,04,25,06,14,5.00
2009,04,25,06,15,5.00
2009,04,25,06,16,4.90
2009,04,25,06,17,4.90
2009,04,25,06,18,4.90
2009,04,25,06,19,4.90
2009,04,25,06,20,4.90
2009,04,25,06,21,4.90
2009,04,25,06,22,4.90
2009,04,25,06,23,4.90
2009,04,25,06,24,4.90
2009,04,25,06,25,4.90
2009,04,25,06,26,4.90
2009,04,25,06,27,4.90
2009,04,25,06,28,4.90
2009,04,25,06,29,4.90
2009,04,25,06,30,5.00
2009,04,25,06,31,5.00
2009,04,25,06,32,5.10
2009,04,25,06,33,5.10
2009,04,25,06,34,5.10
2009,04,25,06,35,5.10
2009,04,25,06,36,5.20
2009,04,25,06,37,5.20
2009,04,25,06,38,5.20
2009,04,25,06,39,5.30
2009,04,25,06,40,5.30
2009,04,25,06,41,5.30
2009,04,25,06,42,5.30
2009,04,25,06,43,5.30
2009,04,25,06,44,5.30
2009,04,25,06,45,5.40
2009,04,25,06,46,5.40
2009,04,25,06,47,5.40
2009,04,25,06,48,5.50
2009,04,25,06,49,5.50
2009,04,25,06,50,5.50
2009,04,25,06,51,5.60
2009,04,25,06,52,5.60
2009,04,25,06,53,5.60
2009,04,25,06,54,5.60
2009,04,25,06,55,5.60
2009,04,25,06,56,5.60
2009,04,25,06,57,5.60
2009,04,25,06,58,5.70
2009,04,25,06,59,5.70
2009,04,25,07,00,5.70
2009,04,25,07,01,5.70
2009,04,25,07,02,5.80
2009,04,25,07,03,5.80
2009,04,25,07,04,5.80
2009,04,25,07,05,5.80
2009,04,25,07,06,5.80
2009,04,25,07,07,5.90
2009,04,25,07,08,5.90
2009,04,25,07,09,5.90
2009,04,25,07,10,6.00
2009,04,25,07,11,6.00
2009,04,25,07,12,6.00
2009,04,25,07,13,6.10
2009,04,25,07,14,6.10
2009,04,25,07,15,6.10
2009,04,25,07,16,6.10
2009,04,25,07,17,6.10
2009,04,25,07,18,6.20
2009,04,25,07,19,6.20
2009,04,25,07,20,6.20
2009,04,25,07,21,6.20
2009,04,25,07,22,6.20
2009,04,25,07,23,6.30
2009,04,25,07,24,6.30
2009,04,25,07,25,6.30
2009,04,25,07,26,6.30
2009,04,25,07,27,6.30
2009,04,25,07,28,6.30
2009,04,25,07,29,6.40
2009,04,25,07,30,6.40
2009,04,25,07,31,6.40
2009,04,25,07,32,6.40
2009,04,25,07,33,6.40
2009,04,25,07,34,6.40
2009,04,25,07,35,6.50
2009,04,25,07,36,6.50
2009,04,25,07,37,6.50
2009,04,25,07,38,6.50
2009,04,25,07,39,6.60
2009,04,25,07,40,6.60
2009,04,25,07,41,6.60
2009,04,25,07,42,6.60
2009,04,25,07,43,6.60
2009,04,25,07,44,6.70
2009,04,25,07,45,6.70
2009,04,25,07,46,6.70
2009,04,25,07,47,6.70
2009,04,25,07,48,6.70
2009,04,25,07,49,6.70
2009,04,25,07,50,6.70
2009,04,25,07,51,6.70
2009,04,25,07,52,6.70
2009,04,25,07,53,6.70
2009,04,25,07,54,6.80
2009,04,25,07,55,6.80
2009,04,25,07,56,6.80
2009,04,25,07,57,6.80
2009,04,25,07,58,6.90
2009,04,25,07,59,6.90
2009,04,25,08,00,6.90
2009,04,25,08,01,6.90
2009,04,25,08,02,6.90
2009,04,25,08,03,7.00
2009,04,25,08,04,7.00
2009,04,25,08,05,7.10
2009,04,25,08,06,7.10
2009,04,25,08,07,7.10
2009,04,25,08,08,7.10
2009,04,25,08,09,7.20
2009,04,25,08,10,7.20
2009,04,25,08,11,7.20
2009,04,25,08,12,7.30
2009,04,25,08,13,7.30
2009,04,25,08,14,7.30
2009,04,25,08,15,7.40
2009,04,25,08,16,7.40
2009,04,25,08,17,7.40
2009,04,25,08,18,7.50
2009,04,25,08,19,7.50
2009,04,25,08,20,7.50
2009,04,25,08,21,7.50
2009,04,25,08,22,7.60
2009,04,25,08,23,7.60
2009,04,25,08,24,7.70
2009,04,25,08,25,7.70
2009,04,25,08,26,7.70
2009,04,25,08,27,7.70
2009,04,25,08,28,7.80
2009,04,25,08,29,7.80
2009,04,25,08,30,7.80
2009,04,25,08,31,7.80
2009,04,25,08,32,7.80
2009,04,25,08,33,7.90
2009,04,25,08,34,7.90
2009,04,25,08,35,7.90
2009,04,25,08,36,8.00
2009,04,25,08,37,8.00
2009,04,25,08,38,8.00
2009,04,25,08,39,8.00
2009,04,25,08,40,8.00
2009,04,25,08,41,8.10
2009,04,25,08,42,8.10
2009,04,25,08,43,8.10
2009,04,25,08,44,8.10
2009,04,25,08,45,8.10
2009,04,25,08,46,8.10
2009,04,25,08,47,8.10
2009,04,25,08,48,8.10
2009,04,25,08,49,8.20
2009,04,25,08,50,8.20
2009,04,25,08,51,8.20
2009,04,25,08,52,8.20
2009,04,25,08,53,8.30
2009,04,25,08,54,8.30
2009,04,25,08,55,8.30
2009,04,25,08,56,8.40
2009,04,25,08,57,8.40
2009,04,25,08,58,8.40
2009,04,25,08,59,8.50
2009,04,25,09,00,8.50
2009,04,25,09,01,8.50
2009,04,25,09,02,8.60
2009,04,25,09,03,8.50
2009,04,25,09,04,8.50
2009,04,25,09,05,8.40
2009,04,25,09,06,8.40
2009,04,25,09,07,8.40
2009,04,25,09,08,8.40
2009,04,25,09,09,8.50
2009,04,25,09,10,8.50
2009,04,25,09,11,8.60
2009,04,25,09,12,8.60
2009,04,25,09,13,8.50
2009,04,25,09,14,8.50
2009,04,25,09,15,8.60
2009,04,25,09,16,8.60
2009,04,25,09,17,8.60
2009,04,25,09,18,8.60
2009,04,25,09,19,8.70
2009,04,25,09,20,8.70
2009,04,25,09,21,8.70
2009,04,25,09,22,8.70
2009,04,25,09,23,8.60
2009,04,25,09,24,8.60
2009,04,25,09,25,8.70
2009,04,25,09,26,8.70
2009,04,25,09,27,8.70
2009,04,25,09,28,8.80
2009,04,25,09,29,8.90
2009,04,25,09,30,8.90
2009,04,25,09,31,8.90
2009,04,25,09,32,9.00
2009,04,25,09,33,9.00
2009,04,25,09,34,9.00
2009,04,25,09,35,9.00
2009,04,25,09,36,9.00
2009,04,25,09,37,9.00
2009,04,25,09,38,9.10
2009,04,25,09,39,9.00
2009,04,25,09,40,8.90
2009,04,25,09,41,8.90
2009,04,25,09,42,8.90
2009,04,25,09,43,8.80
2009,04,25,09,44,8.80
2009,04,25,09,45,8.80
2009,04,25,09,46,8.80
2009,04,25,09,47,8.90
2009,04,25,09,48,8.90
2009,04,25,09,49,8.90
2009,04,25,09,50,8.90
2009,04,25,09,51,8.90
2009,04,25,09,52,8.90
2009,04,25,09,53,8.80
2009,04,25,09,54,8.90
2009,04,25,09,55,8.80
2009,04,25,09,56,8.80
2009,04,25,09,57,8.80
2009,04,25,09,58,8.80
2009,04,25,09,59,8.80
2009,04,25,10,00,8.90
2009,04,25,10,01,9.00
2009,04,25,10,02,9.00
2009,04,25,10,03,9.00
2009,04,25,10,04,9.10
2009,04,25,10,05,9.00
2009,04,25,10,06,9.00
2009,04,25,10,07,9.00
2009,04,25,10,08,8.90
2009,04,25,10,09,8.90
2009,04,25,10,10,8.90
2009,04,25,10,11,8.80
2009,04,25,10,12,8.80
2009,04,25,10,13,8.80
2009,04,25,10,14,8.80
2009,04,25,10,15,8.80
2009,04,25,10,16,8.80
2009,04,25,10,17,8.80
2009,04,25,10,18,8.70
2009,04,25,10,19,8.70
2009,04,25,10,20,8.70
2009,04,25,10,21,8.70
2009,04,25,10,22,8.70
2009,04,25,10,23,8.70
2009,04,25,10,24,8.70
2009,04,25,10,25,8.70
2009,04,25,10,26,8.80
2009,04,25,10,27,8.80
2009,04,25,10,28,8.80
2009,04,25,10,29,8.80
2009,04,25,10,30,8.80
2009,04,25,10,31,8.80
2009,04,25,10,32,8.80
2009,04,25,10,33,8.80
2009,04,25,10,34,8.80
2009,04,25,10,35,8.80
2009,04,25,10,36,8.80
2009,04,25,10,37,8.80
2009,04,25,10,38,8.80
2009,04,25,10,39,8.80
2009,04,25,10,40,8.90
2009,04,25,10,41,8.90
2009,04,25,10,42,8.90
2009,04,25,10,43,8.90
2009,04,25,10,44,9.00
2009,04,25,10,45,9.00
2009,04,25,10,46,9.00
2009,04,25,10,47,9.00
2009,04,25,10,48,9.10
2009,04,25,10,49,9.10
2009,04,25,10,50,9.10
2009,04,25,10,51,9.10
2009,04,25,10,52,9.10
2009,04,25,10,53,9.20
2009,04,25,10,54,9.20
2009,04,25,10,55,9.20
2009,04,25,10,56,9.20
2009,04,25,10,57,9.20
2009,04,25,10,58,9.00
2009,04,25,10,59,9.00
2009,04,25,11,00,9.00
2009,04,25,11,01,9.00
2009,04,25,11,02,9.00
2009,04,25,11,03,9.10
2009,04,25,11,04,9.10
2009,04,25,11,05,9.00
2009,04,25,11,06,9.00
2009,04,25,11,07,8.90
2009,04,25,11,08,8.90
2009,04,25,11,09,9.00
2009,04,25,11,10,9.00
2009,04,25,11,11,9.00
2009,04,25,11,12,9.10
2009,04,25,11,13,9.10
2009,04,25,11,14,9.00
2009,04,25,11,15,9.00
2009,04,25,11,16,9.10
2009,04,25,11,17,9.10
2009,04,25,11,18,9.10
2009,04,25,11,19,9.10
2009,04,25,11,20,9.10
2009,04,25,11,21,9.10
2009,04,25,11,22,9.10
2009,04,25,11,23,9.00
2009,04,25,11,24,9.00
2009,04,25,11,25,9.00
2009,04,25,11,26,9.10
2009,04,25,11,27,9.10
2009,04,25,11,28,9.10
2009,04,25,11,29,9.10
2009,04,25,11,30,9.20
2009,04,25,11,31,9.20
2009,04,25,11,32,9.30
2009,04,25,11,33,9.30
2009,04,25,11,34,9.30
2009,04,25,11,35,9.30
2009,04,25,11,36,9.40
2009,04,25,11,37,9.40
2009,04,25,11,38,9.50
2009,04,25,11,39,9.50
2009,04,25,11,40,9.50
2009,04,25,11,41,9.50
2009,04,25,11,42,9.60
2009,04,25,11,43,9.60
2009,04,25,11,44,9.50
2009,04,25,11,45,9.50
2009,04,25,11,46,9.40
2009,04,25,11,47,9.40
2009,04,25,11,48,9.40
2009,04,25,11,49,9.50
2009,04,25,11,50,9.50
2009,04,25,11,51,9.60
2009,04,25,11,52,9.70
2009,04,25,11,53,9.70
2009,04,25,11,54,9.80
2009,04,25,11,55,9.90
2009,04,25,11,56,9.90
2009,04,25,11,57,9.80
2009,04,25,11,58,9.80
2009,04,25,11,59,9.70
2009,04,25,12,00,9.70
2009,04,25,12,01,9.70
2009,04,25,12,02,9.70
2009,04,25,12,03,9.70
2009,04,25,12,04,9.70
2009,04,25,12,05,9.70
2009,04,25,12,06,9.70
2009,04,25,12,07,9.80
2009,04,25,12,08,9.80
2009,04,25,12,09,9.80
2009,04,25,12,10,9.80
2009,04,25,12,11,9.80
2009,04,25,12,12,9.80
2009,04,25,12,13,9.80
2009,04,25,12,14,9.90
2009,04,25,12,15,10.00
2009,04,25,12,16,10.10
2009,04,25,12,17,10.20
2009,04,25,12,18,10.30
2009,04,25,12,19,10.30
2009,04,25,12,20,10.40
2009,04,25,12,21,10.40
2009,04,25,12,22,10.30
2009,04,25,12,23,10.30
2009,04,25,12,24,10.20
2009,04,25,12,25,10.20
2009,04,25,12,26,10.20
2009,04,25,12,27,10.20
2009,04,25,12,28,10.20
2009,04,25,12,29,10.30
2009,04,25,12,30,10.40
2009,04,25,12,31,10.40
2009,04,25,12,32,10.40
2009,04,25,12,33,10.40
2009,04,25,12,34,10.30
2009,04,25,12,35,10.30
2009,04,25,12,36,10.30
2009,04,25,12,37,10.30
2009,04,25,12,38,10.40
2009,04,25,12,39,10.40
2009,04,25,12,40,10.30
2009,04,25,12,41,10.30
2009,04,25,12,42,10.30
2009,04,25,12,43,10.30
2009,04,25,12,44,10.20
2009,04,25,12,45,10.30
2009,04,25,12,46,10.30
2009,04,25,12,47,10.30
2009,04,25,12,48,10.40
2009,04,25,12,49,10.40
2009,04,25,12,50,10.40
2009,04,25,12,51,10.40
2009,04,25,12,52,10.40
2009,04,25,12,53,10.40
2009,04,25,12,54,10.40
2009,04,25,12,55,10.30
2009,04,25,12,56,10.40
2009,04,25,12,57,10.30
2009,04,25,12,58,10.30
2009,04,25,12,59,10.40
2009,04,25,13,00,10.40
2009,04,25,13,01,10.40
2009,04,25,13,02,10.40
2009,04,25,13,03,10.40
2009,04,25,13,04,10.50
2009,04,25,13,05,10.60
2009,04,25,13,06,10.70
2009,04,25,13,07,10.70
2009,04,25,13,08,10.80
2009,04,25,13,09,10.80
2009,04,25,13,10,10.80
2009,04,25,13,11,10.80
2009,04,25,13,12,10.80
2009,04,25,13,13,10.80
2009,04,25,13,14,10.90
2009,04,25,13,15,10.90
2009,04,25,13,16,10.90
2009,04,25,13,17,11.00
2009,04,25,13,18,11.10
2009,04,25,13,19,11.10
2009,04,25,13,20,11.20
2009,04,25,13,21,11.30
2009,04,25,13,22,11.30
2009,04,25,13,23,11.40
2009,04,25,13,24,11.40
2009,04,25,13,25,11.50
2009,04,25,13,26,11.50
2009,04,25,13,27,11.40
2009,04,25,13,28,11.30
2009,04,25,13,29,11.20
2009,04,25,13,30,11.20
2009,04,25,13,31,11.10
2009,04,25,13,32,11.10
2009,04,25,13,33,11.20
2009,04,25,13,34,11.20
2009,04,25,13,35,11.20
2009,04,25,13,36,11.10
2009,04,25,13,37,11.20
2009,04,25,13,38,11.10
2009,04,25,13,39,11.10
2009,04,25,13,40,11.10
2009,04,25,13,41,11.10
2009,04,25,13,42,11.10
2009,04,25,13,43,11.00
2009,04,25,13,44,11.00
2009,04,25,13,45,11.00
2009,04,25,13,46,11.00
2009,04,25,13,47,11.00
2009,04,25,13,48,11.00
2009,04,25,13,49,11.00
2009,04,25,13,50,11.10
2009,04,25,13,51,11.20
2009,04,25,13,52,11.20
2009,04,25,13,53,11.30
2009,04,25,13,54,11.30
2009,04,25,13,55,11.40
2009,04,25,13,56,11.40
2009,04,25,13,57,11.40
2009,04,25,13,58,11.50
2009,04,25,13,59,11.50
2009,04,25,14,00,11.40
2009,04,25,14,01,11.40
2009,04,25,14,02,11.40
2009,04,25,14,03,11.40
2009,04,25,14,04,11.50
2009,04,25,14,05,11.50
2009,04,25,14,06,11.60
2009,04,25,14,07,11.60
2009,04,25,14,08,11.50
2009,04,25,14,09,11.50
2009,04,25,14,10,11.60
2009,04,25,14,11,11.60
2009,04,25,14,12,11.60
2009,04,25,14,13,11.60
2009,04,25,14,14,11.60
2009,04,25,14,15,11.70
2009,04,25,14,16,11.80
2009,04,25,14,17,11.80
2009,04,25,14,18,11.80
2009,04,25,14,19,11.90
2009,04,25,14,20,11.90
2009,04,25,14,21,11.90
2009,04,25,14,22,11.90
2009,04,25,14,23,12.00
2009,04,25,14,24,12.10
2009,04,25,14,25,12.10
2009,04,25,14,26,12.00
2009,04,25,14,27,12.00
2009,04,25,14,28,12.00
2009,04,25,14,29,12.00
2009,04,25,14,30,12.00
2009,04,25,14,31,12.10
2009,04,25,14,32,12.20
2009,04,25,14,33,12.20
2009,04,25,14,34,12.20
2009,04,25,14,35,12.30
2009,04,25,14,36,12.40
2009,04,25,14,37,12.50
2009,04,25,14,38,12.50
2009,04,25,14,39,12.50
2009,04,25,14,40,12.40
2009,04,25,14,41,12.50
2009,04,25,14,42,12.50
2009,04,25,14,43,12.60
2009,04,25,14,44,12.60
2009,04,25,14,45,12.70
2009,04,25,14,46,12.70
2009,04,25,14,47,12.60
2009,04,25,14,48,12.60
2009,04,25,14,49,12.60
2009,04,25,14,50,12.50
2009,04,25,14,51,12.40
2009,04,25,14,52,12.30
2009,04,25,14,53,12.30
2009,04,25,14,54,12.30
2009,04,25,14,55,12.30
2009,04,25,14,56,12.40
2009,04,25,14,57,12.50
2009,04,25,14,58,12.60
2009,04,25,14,59,12.50
2009,04,25,15,00,12.40
2009,04,25,15,01,12.40
2009,04,25,15,02,12.40
2009,04,25,15,03,12.40
2009,04,25,15,04,12.50
2009,04,25,15,05,12.60
2009,04,25,15,06,12.60
2009,04,25,15,07,12.60
2009,04,25,15,08,12.60
2009,04,25,15,09,12.60
2009,04,25,15,10,12.50
2009,04,25,15,11,12.40
2009,04,25,15,12,12.40
2009,04,25,15,13,12.40
2009,04,25,15,14,12.50
2009,04,25,15,15,12.60
2009,04,25,15,16,12.70
2009,04,25,15,17,12.80
2009,04,25,15,18,12.80
2009,04,25,15,19,12.90
2009,04,25,15,20,13.00
2009,04,25,15,21,12.90
2009,04,25,15,22,13.00
2009,04,25,15,23,13.00
2009,04,25,15,24,13.00
2009,04,25,15,25,13.00
2009,04,25,15,26,13.00
2009,04,25,15,27,13.00
2009,04,25,15,28,13.00
2009,04,25,15,29,13.10
2009,04,25,15,30,13.10
2009,04,25,15,31,13.10
2009,04,25,15,32,13.10
2009,04,25,15,33,13.20
2009,04,25,15,34,13.20
2009,04,25,15,35,13.30
2009,04,25,15,36,13.30
2009,04,25,15,37,13.40
2009,04,25,15,38,13.40
2009,04,25,15,39,13.40
2009,04,25,15,40,13.40
2009,04,25,15,41,13.40
2009,04,25,15,42,13.30
2009,04,25,15,43,13.20
2009,04,25,15,44,13.10
2009,04,25,15,45,13.00
2009,04,25,15,46,12.90
2009,04,25,15,47,12.90
2009,04,25,15,48,12.80
2009,04,25,15,49,12.80
2009,04,25,15,50,12.80
2009,04,25,15,51,12.90
2009,04,25,15,52,12.90
2009,04,25,15,53,12.90
2009,04,25,15,54,13.00
2009,04,25,15,55,13.00
2009,04,25,15,56,13.00
2009,04,25,15,57,12.90
2009,04,25,15,58,12.90
2009,04,25,15,59,12.80
2009,04,25,16,00,12.80
2009,04,25,16,01,12.80
2009,04,25,16,02,12.80
2009,04,25,16,03,12.80
2009,04,25,16,04,12.90
2009,04,25,16,05,13.00
2009,04,25,16,06,13.00
2009,04,25,16,07,13.00
2009,04,25,16,08,13.00
2009,04,25,16,09,13.10
2009,04,25,16,10,13.10
2009,04,25,16,11,13.10
2009,04,25,16,12,13.10
2009,04,25,16,13,13.10
2009,04,25,16,14,13.10
2009,04,25,16,15,13.20
2009,04,25,16,16,13.20
2009,04,25,16,17,13.30
2009,04,25,16,18,13.40
2009,04,25,16,19,13.40
2009,04,25,16,20,13.40
2009,04,25,16,21,13.50
2009,04,25,16,22,13.50
2009,04,25,16,23,13.40
2009,04,25,16,24,13.30
2009,04,25,16,25,13.40
2009,04,25,16,26,13.30
2009,04,25,16,27,13.30
2009,04,25,16,28,13.30
2009,04,25,16,29,13.40
2009,04,25,16,30,13.40
2009,04,25,16,31,13.50
2009,04,25,16,32,13.60
2009,04,25,16,33,13.70
2009,04,25,16,34,13.80
2009,04,25,16,35,13.90
2009,04,25,16,36,13.90
2009,04,25,16,37,13.90
2009,04,25,16,38,13.90
2009,04,25,16,39,14.00
2009,04,25,16,40,14.00
2009,04,25,16,41,13.90
2009,04,25,16,42,13.90
2009,04,25,16,43,13.80
2009,04,25,16,44,13.80
2009,04,25,16,45,13.80
2009,04,25,16,46,13.70
2009,04,25,16,47,13.70
2009,04,25,16,48,13.70
2009,04,25,16,49,13.60
2009,04,25,16,50,13.60
2009,04,25,16,51,13.60
2009,04,25,16,52,13.60
2009,04,25,16,53,13.60
2009,04,25,16,54,13.50
2009,04,25,16,55,13.50
2009,04,25,16,56,13.50
2009,04,25,16,57,13.40
2009,04,25,16,58,13.30
2009,04,25,16,59,13.30
2009,04,25,17,00,13.30
2009,04,25,17,01,13.30
2009,04,25,17,02,13.20
2009,04,25,17,03,13.20
2009,04,25,17,04,13.20
2009,04,25,17,05,13.20
2009,04,25,17,06,13.20
2009,04,25,17,07,13.20
2009,04,25,17,08,13.20
2009,04,25,17,09,13.30
2009,04,25,17,10,13.30
2009,04,25,17,11,13.30
2009,04,25,17,12,13.30
2009,04,25,17,13,13.30
2009,04,25,17,14,13.30
2009,04,25,17,15,13.30
2009,04,25,17,16,13.40
2009,04,25,17,17,13.40
2009,04,25,17,18,13.50
2009,04,25,17,19,13.50
2009,04,25,17,20,13.60
2009,04,25,17,21,13.50
2009,04,25,17,22,13.50
2009,04,25,17,23,13.50
2009,04,25,17,24,13.50
2009,04,25,17,25,13.50
2009,04,25,17,26,13.60
2009,04,25,17,27,13.70
2009,04,25,17,28,13.80
2009,04,25,17,29,13.80
2009,04,25,17,30,13.80
2009,04,25,17,31,13.80
2009,04,25,17,32,13.80
2009,04,25,17,33,13.80
2009,04,25,17,34,13.80
2009,04,25,17,35,13.70
2009,04,25,17,36,13.70
2009,04,25,17,37,13.70
2009,04,25,17,38,13.70
2009,04,25,17,39,13.80
2009,04,25,17,40,13.80
2009,04,25,17,41,13.70
2009,04,25,17,42,13.50
2009,04,25,17,43,13.50
2009,04,25,17,44,13.40
2009,04,25,17,45,13.40
2009,04,25,17,46,13.40
2009,04,25,17,47,13.30
2009,04,25,17,48,13.30
2009,04,25,17,49,13.30
2009,04,25,17,50,13.30
2009,04,25,17,51,13.30
2009,04,25,17,52,13.20
2009,04,25,17,53,13.30
2009,04,25,17,54,13.30
2009,04,25,17,55,13.30
2009,04,25,17,56,13.20
2009,04,25,17,57,13.20
2009,04,25,17,58,13.20
2009,04,25,17,59,13.20
2009,04,25,18,00,13.20
2009,04,25,18,01,13.20
2009,04,25,18,02,13.20
2009,04,25,18,03,13.20
2009,04,25,18,04,13.20
2009,04,25,18,05,13.20
2009,04,25,18,06,13.30
2009,04,25,18,07,13.30
2009,04,25,18,08,13.30
2009,04,25,18,09,13.30
2009,04,25,18,10,13.30
2009,04,25,18,11,13.30
2009,04,25,18,12,13.30
2009,04,25,18,13,13.30
2009,04,25,18,14,13.30
2009,04,25,18,15,13.30
2009,04,25,18,16,13.30
2009,04,25,18,17,13.30
2009,04,25,18,18,13.40
2009,04,25,18,19,13.40
2009,04,25,18,20,13.40
2009,04,25,18,21,13.40
2009,04,25,18,22,13.40
2009,04,25,18,23,13.40
2009,04,25,18,24,13.50
2009,04,25,18,25,13.50
2009,04,25,18,26,13.60
2009,04,25,18,27,13.60
2009,04,25,18,28,13.60
2009,04,25,18,29,13.60
2009,04,25,18,30,13.60
2009,04,25,18,31,13.60
2009,04,25,18,32,13.70
2009,04,25,18,33,13.70
2009,04,25,18,34,13.60
2009,04,25,18,35,13.60
2009,04,25,18,36,13.60
2009,04,25,18,37,13.50